CAPE
0 0 0 0 0 0 0 0 0 0 0 0 0 0 0 0 0 0 0 0 0 0 0 0 0 0 0 0 0 0 0 0 0 0 0 0 0 88 238 301 302 314 504 488 470 314 233 98 114
0 0 0 0 0 0 0 0 0 0 0 0 0 0 0 0 0 0 0 0 0 0 0 0 0 0 0 0 0 0 0 0 0 0 0 0 0 0 8 135 218 268 399 487 545 465 158 124 88
0 0 0 0 0 0 0 0 0 0 0 0 0 0 0 0 0 0 0 0 0 0 0 0 0 0 0 0 0 0 0 0 0 0 0 0 0 0 0 0 93 162 261 377 508 440 282 190 70
0 0 0 0 0 0 0 0 0 0 0 0 0 0 0 0 0 0 0 0 0 0 0 0 0 0 0 0 0 0 0 0 0 0 0 0 0 0 0 0 3 81 78 175 293 349 238 262 187
0 0 0 0 0 0 0 0 0 0 0 0 0 0 0 0 0 0 0 0 0 0 0 0 0 0 0 0 0 0 0 0 0 0 0 0 0 0 0 0 0 9 38 36 43 162 155 261 135
0 0 0 0 0 0 0 0 0 0 0 0 0 0 0 0 0 0 0 0 0 0 0 0 0 0 0 0 0 0 0 0 0 0 0 0 0 0 1 3 4 9 12 20 21 1 45 20 168
0 0 0 0 0 0 0 0 0 0 0 0 0 0 0 0 0 0 0 0 0 0 0 0 0 0 0 0 0 0 0 0 0 0 0 0 0 0 0 0 1 2 5 13 23 2 0 52 108
0 0 0 0 0 0 0 0 0 0 0 0 0 0 0 0 0 0 0 0 0 0 0 0 0 0 0 0 0 0 0 0 0 0 0 0 0 0 0 0 0 0 1 1 9 15 0 78 87
0 0 0 0 0 0 0 0 0 0 0 0 0 0 0 0 0 0 0 0 0 0 0 0 0 0 0 0 0 0 0 0 0 0 0 0 0 0 0 0 0 0 0 0 1 14 3 62 0
0 0 0 0 0 0 0 0 0 0 0 0 0 0 0 0 0 0 0 0 0 0 0 0 0 0 0 0 0 0 0 0 0 0 0 0 0 0 0 0 0 0 0 0 4 12 26 0 0
0 0 0 0 0 0 0 0 0 0 0 0 0 0 0 0 0 0 0 0 0 0 0 0 0 0 0 0 0 0 0 0 0 0 0 0 0 0 0 0 0 0 0 0 22 8 18 1 0
0 0 0 0 0 0 0 0 0 0 0 0 0 0 0 0 0 0 0 0 0 0 0 0 0 0 0 0 0 0 0 0 0 0 0 0 0 0 0 0 0 0 0 1 18 23 5 19 0
0 0 0 0 0 0 0 0 0 0 0 0 0 0 0 0 0 0 0 0 0 0 0 0 0 0 0 0 0 0 0 0 0 0 0 0 0 0 0 0 0 0 0 25 31 15 1 3 2
0 0 0 0 0 0 0 0 0 0 0 0 0 0 0 0 0 0 0 0 0 0 0 0 0 0 0 0 0 0 0 0 0 0 0 0 0 0 0 0 0 1 5 22 26 15 4 1 6
0 0 0 0 0 0 0 0 0 0 0 0 0 0 0 0 0 0 0 0 0 0 0 0 0 0 0 0 0 0 0 0 0 0 0 0 0 0 0 0 5 3 1 7 35 37 23 2 10
0 0 0 0 0 0 0 0 0 0 0 0 0 0 0 0 0 0 0 0 0 0 0 0 0 0 0 0 0 0 0 0 0 0 0 0 0 0 0 0 4 11 2 1 51 90 114 46 86
0 0 0 0 0 0 0 0 0 0 0 0 0 0 0 0 0 0 0 0 0 0 0 0 0 0 0 0 0 0 0 0 0 0 0 0 0 0 0 1 13 15 0 10 13 91 115 122 96
0 0 0 0 0 0 0 0 0 0 0 0 0 0 0 0 0 0 0 0 0 0 0 0 0 0 0 0 0 0 0 0 0 0 0 0 1 2 6 8 16 17 11 24 21 74 60 99 87
0 0 0 0 0 0 0 0 0 0 0 0 0 0 0 0 0 0 0 0 0 0 0 0 0 0 0 0 0 0 0 0 0 0 1 0 3 3 1 1 8 18 14 18 39 82 39 85 1
0 0 0 0 0 0 0 0 0 0 0 0 0 0 0 0 0 0 0 0 0 0 0 0 0 0 0 0 0 0 0 0 0 1 0 1 2 0 0 2 5 11 16 4 83 71 4 4 1
0 0 0 0 0 0 0 0 0 0 0 0 0 0 0 0 0 0 0 0 0 0 0 0 0 0 0 0 0 0 0 0 0 0 0 0 0 0 0 1 0 0 0 0 35 47 29 5 1
0 0 0 0 0 0 0 0 0 0 0 0 0 0 0 0 0 0 0 0 0 0 0 0 0 0 0 0 0 0 0 0 0 0 0 0 0 0 1 0 0 0 0 0 7 4 3 0 1
0 0 0 0 0 0 0 0 0 0 0 0 0 0 0 0 0 0 0 0 0 0 0 0 0 0 0 0 0 0 0 0 0 0 0 0 0 0 0 0 0 0 0 0 59 7 0 1 0
0 0 0 0 0 0 0 0 0 0 0 0 0 0 0 0 0 0 0 0 0 0 0 0 0 0 0 0 0 0 0 0 0 0 0 0 0 0 0 0 0 0 0 0 14 13 10 7 3
0 0 0 0 0 0 0 0 0 0 0 0 0 0 0 0 0 0 0 0 0 0 0 0 0 0 0 0 0 0 0 0 0 0 0 0 0 0 0 0 0 0 0 0 0 37 5 5 2
0 0 0 0 0 0 0 0 0 0 0 0 0 0 0 0 0 0 0 0 0 0 0 0 0 0 0 0 0 0 0 0 0 0 0 0 0 0 0 0 0 0 0 0 0 4 6 7 0
0 0 0 0 0 0 0 0 0 0 0 0 0 0 0 0 0 0 0 0 0 0 0 0 0 0 0 0 0 0 0 0 0 0 0 0 0 0 0 0 0 0 0 0 0 1 4 3 2
0 0 0 0 0 0 0 0 0 0 0 0 0 0 0 0 0 0 0 0 0 0 0 0 0 0 0 0 0 0 0 0 0 0 0 0 0 0 0 0 0 0 0 0 0 5 2 2 3
0 0 0 0 0 0 0 0 0 0 0 0 0 0 0 0 0 0 0 0 0 0 0 0 0 0 0 0 0 0 0 0 0 0 0 0 0 0 0 0 0 0 0 0 0 4 1 1 3
0 0 0 0 0 0 0 0 0 0 0 0 0 0 0 0 0 0 0 0 0 0 0 0 0 0 0 0 0 0 0 0 0 0 0 0 0 0 0 0 0 0 0 0 0 3 1 0 2
CIN
-0 -0 -0 -0 -0 -0 -0 -0 -0 -0 -0 -0 -0 -0 -0 -0 -0 -0 -0 -0 -0 -0 -0 -0 -0 -0 -0 -0 -0 -0 -0 -0 -0 -0 -0 -0 -0 -154 -58 -24 -28 -17 -0 -0 -0 -5 -5 -5 -5
-0 -0 -0 -0 -0 -0 -0 -0 -0 -0 -0 -0 -0 -0 -0 -0 -0 -0 -0 -0 -0 -0 -0 -0 -0 -0 -0 -0 -0 -0 -0 -0 -0 -0 -0 -0 -0 -1 -138 -103 -49 -33 -13 -2 -0 -0 -12 -12 -9
-0 -0 -0 -0 -0 -0 -0 -0 -0 -0 -0 -0 -0 -0 -0 -0 -0 -0 -0 -0 -0 -0 -0 -0 -0 -0 -0 -0 -0 -0 -0 -0 -0 -0 -0 -0 -0 -0 -0 -2 -140 -72 -38 -15 -1 -1 -9 -11 -17
-0 -0 -0 -0 -0 -0 -0 -0 -0 -0 -0 -0 -0 -0 -0 -0 -0 -0 -0 -0 -0 -0 -0 -0 -0 -0 -0 -0 -0 -0 -0 -0 -0 -0 -0 -0 -0 -0 -0 -0 -0 -138 -104 -41 -13 -0 -3 -4 -11
-0 -0 -0 -0 -0 -0 -0 -0 -0 -0 -0 -0 -0 -0 -0 -0 -0 -0 -0 -0 -0 -0 -0 -0 -0 -0 -0 -0 -0 -0 -0 -0 -0 -0 -0 -0 -0 -0 -0 -0 -0 -2 -176 -141 -87 -25 -20 -3 -7
-0 -0 -0 -0 -0 -0 -0 -0 -0 -0 -0 -0 -0 -0 -0 -0 -0 -0 -0 -0 -0 -0 -0 -0 -0 -0 -0 -0 -0 -0 -0 -0 -0 -0 -0 -0 -0 -0 -0 -0 -0 -0 -0 -87 -57 -7 -31 -17 -18
-0 -0 -0 -0 -0 -0 -0 -0 -0 -0 -0 -0 -0 -0 -0 -0 -0 -0 -0 -0 -0 -0 -0 -0 -0 -0 -0 -0 -0 -0 -0 -0 -0 -0 -0 -0 -0 -0 -0 -0 -0 -0 -0 -0 -0 -8 -0 -38 -24
-0 -0 -0 -0 -0 -0 -0 -0 -0 -0 -0 -0 -0 -0 -0 -0 -0 -0 -0 -0 -0 -0 -0 -0 -0 -0 -0 -0 -0 -0 -0 -0 -0 -0 -0 -0 -0 -0 -0 -0 -0 -0 -0 -0 -7 -5 -4 -5 -47
-0 -0 -0 -0 -0 -0 -0 -0 -0 -0 -0 -0 -0 -0 -0 -0 -0 -0 -0 -0 -0 -0 -0 -0 -0 -0 -0 -0 -0 -0 -0 -0 -0 -0 -0 -0 -0 -0 -0 -0 -0 -0 -0 -0 -1 -6 -7 -1 -0
-0 -0 -0 -0 -0 -0 -0 -0 -0 -0 -0 -0 -0 -0 -0 -0 -0 -0 -0 -0 -0 -0 -0 -0 -0 -0 -0 -0 -0 -0 -0 -0 -0 -0 -0 -0 -0 -0 -0 -0 -0 -0 -0 -0 -11 -4 -1 -8 -0
-0 -0 -0 -0 -0 -0 -0 -0 -0 -0 -0 -0 -0 -0 -0 -0 -0 -0 -0 -0 -0 -0 -0 -0 -0 -0 -0 -0 -0 -0 -0 -0 -0 -0 -0 -0 -0 -0 -0 -0 -0 -0 -0 -0 -14 -8 -11 -18 -0
-0 -0 -0 -0 -0 -0 -0 -0 -0 -0 -0 -0 -0 -0 -0 -0 -0 -0 -0 -0 -0 -0 -0 -0 -0 -0 -0 -0 -0 -0 -0 -0 -0 -0 -0 -0 -0 -0 -0 -0 -0 -0 -0 -10 -11 -7 -17 -35 -0
-0 -0 -0 -0 -0 -0 -0 -0 -0 -0 -0 -0 -0 -0 -0 -0 -0 -0 -0 -0 -0 -0 -0 -0 -0 -0 -0 -0 -0 -0 -0 -0 -0 -0 -0 -0 -0 -0 -0 -0 -0 -0 -0 -24 -11 -5 -0 -24 -44
-0 -0 -0 -0 -0 -0 -0 -0 -0 -0 -0 -0 -0 -0 -0 -0 -0 -0 -0 -0 -0 -0 -0 -0 -0 -0 -0 -0 -0 -0 -0 -0 -0 -0 -0 -0 -0 -0 -0 -0 -0 -10 -30 -21 -8 -1 -0 -0 -72
-0 -0 -0 -0 -0 -0 -0 -0 -0 -0 -0 -0 -0 -0 -0 -0 -0 -0 -0 -0 -0 -0 -0 -0 -0 -0 -0 -0 -0 -0 -0 -0 -0 -0 -0 -0 -0 -0 -0 -0 -3 -8 -12 -24 -5 -1 -1 -0 -72
-0 -0 -0 -0 -0 -0 -0 -0 -0 -0 -0 -0 -0 -0 -0 -0 -0 -0 -0 -0 -0 -0 -0 -0 -0 -0 -0 -0 -0 -0 -0 -0 -0 -0 -0 -0 -0 -0 -0 -0 -9 -21 -20 -3 -0 -0 -3 -45 -40
-0 -0 -0 -0 -0 -0 -0 -0 -0 -0 -0 -0 -0 -0 -0 -0 -0 -0 -0 -0 -0 -0 -0 -0 -0 -0 -0 -0 -0 -0 -0 -0 -0 -0 -0 -0 -0 -0 -0 -3 -13 -14 -0 -30 -19 -0 -3 -2 -5
-0 -0 -0 -0 -0 -0 -0 -0 -0 -0 -0 -0 -0 -0 -0 -0 -0 -0 -0 -0 -0 -0 -0 -0 -0 -0 -0 -0 -0 -0 -0 -0 -0 -0 -0 -0 -0 -2 -11 -17 -15 -22 -17 -25 -18 -1 -0 -1 -7
-0 -0 -0 -0 -0 -0 -0 -0 -0 -0 -0 -0 -0 -0 -0 -0 -0 -0 -0 -0 -0 -0 -0 -0 -0 -0 -0 -0 -0 -0 -0 -0 -0 -0 -1 -1 -3 -6 -15 -17 -11 -7 -16 -7 -19 -11 -0 -1 -0
-0 -0 -0 -0 -0 -0 -0 -0 -0 -0 -0 -0 -0 -0 -0 -0 -0 -0 -0 -0 -0 -0 -0 -0 -0 -0 -0 -0 -0 -0 -0 -0 -0 -5 -10 -5 -4 -1 -0 -15 -13 -16 -14 -25 -0 -1 -23 -17 -8
-0 -0 -0 -0 -0 -0 -0 -0 -0 -0 -0 -0 -0 -0 -0 -0 -0 -0 -0 -0 -0 -0 -0 -0 -0 -0 -0 -0 -0 -0 -0 -0 -3 -1 -0 -0 -2 -1 -0 -0 -0 -0 -7 -0 -4 -8 -9 -6 -0
-0 -0 -0 -0 -0 -0 -0 -0 -0 -0 -0 -0 -0 -0 -0 -0 -0 -0 -0 -0 -0 -0 -0 -0 -0 -0 -0 -0 -0 -0 -0 -0 -0 -0 -0 -0 -0 -0 -0 -0 -0 -0 -0 -0 -8 -22 -8 -3 -0
-0 -0 -0 -0 -0 -0 -0 -0 -0 -0 -0 -0 -0 -0 -0 -0 -0 -0 -0 -0 -0 -0 -0 -0 -0 -0 -0 -0 -0 -0 -0 -0 -0 -0 -0 -0 -0 -0 -0 -0 -0 -0 -0 -0 -1 -19 -0 -7 -0
-0 -0 -0 -0 -0 -0 -0 -0 -0 -0 -0 -0 -0 -0 -0 -0 -0 -0 -0 -0 -0 -0 -0 -0 -0 -0 -0 -0 -0 -0 -0 -0 -0 -0 -0 -0 -0 -0 -0 -0 -0 -0 -0 -0 -10 -4 -19 -14 -35
-0 -0 -0 -0 -0 -0 -0 -0 -0 -0 -0 -0 -0 -0 -0 -0 -0 -0 -0 -0 -0 -0 -0 -0 -0 -0 -0 -0 -0 -0 -0 -0 -0 -0 -0 -0 -0 -0 -0 -0 -0 -0 -0 -0 -12 -0 -13 -18 -12
-0 -0 -0 -0 -0 -0 -0 -0 -0 -0 -0 -0 -0 -0 -0 -0 -0 -0 -0 -0 -0 -0 -0 -0 -0 -0 -0 -0 -0 -0 -0 -0 -0 -0 -0 -0 -0 -0 -0 -0 -0 -0 -0 -0 -0 -4 -4 -20 -6
-0 -0 -0 -0 -0 -0 -0 -0 -0 -0 -0 -0 -0 -0 -0 -0 -0 -0 -0 -0 -0 -0 -0 -0 -0 -0 -0 -0 -0 -0 -0 -0 -0 -0 -0 -0 -0 -0 -0 -0 -0 -0 -0 -0 -0 -0 -20 -10 -0
-0 -0 -0 -0 -0 -0 -0 -0 -0 -0 -0 -0 -0 -0 -0 -0 -0 -0 -0 -0 -0 -0 -0 -0 -0 -0 -0 -0 -0 -0 -0 -0 -0 -0 -0 -0 -0 -0 -0 -0 -0 -0 -0 -0 -0 -21 -10 -0 -0
-0 -0 -0 -0 -0 -0 -0 -0 -0 -0 -0 -0 -0 -0 -0 -0 -0 -0 -0 -0 -0 -0 -0 -0 -0 -0 -0 -0 -0 -0 -0 -0 -0 -0 -0 -0 -0 -0 -0 -0 -0 -0 -0 -0 -0 -15 -0 -0 -9
-0 -0 -0 -0 -0 -0 -0 -0 -0 -0 -0 -0 -0 -0 -0 -0 -0 -0 -0 -0 -0 -0 -0 -0 -0 -0 -0 -0 -0 -0 -0 -0 -0 -0 -0 -0 -0 -0 -0 -0 -0 -0 -0 -0 -0 -11 -12 -0 -10
Wind_Speed
20 19 13 13 11 13 8 9 11 9 10 11 14 12 12 13 11 13 13 10 12 10 10 12 14 16 18 20 21 21 21 21 22 22 23 24 23 23 24 21 20 20 18 14 9 8 5 3 3
16 13 13 12 11 8 6 10 6 8 12 13 14 14 14 11 11 11 10 6 9 9 11 12 14 16 17 19 20 21 21 22 22 23 23 22 23 24 24 24 22 21 19 16 13 9 9 5 6
13 14 12 11 11 7 9 8 8 12 12 13 14 16 14 12 11 8 10 7 8 9 11 12 14 15 16 18 19 21 22 22 23 23 23 23 22 23 24 25 25 22 21 19 15 14 11 9 8
13 13 14 10 6 7 10 12 10 12 15 15 15 15 15 13 14 9 8 7 8 8 10 12 13 14 16 17 19 20 21 22 23 23 23 23 23 23 23 22 23 25 22 20 20 17 14 12 10
13 13 10 10 8 9 10 13 10 12 17 15 15 17 16 15 12 9 7 7 7 8 10 11 12 14 15 17 19 20 21 22 23 24 24 25 25 25 25 24 24 23 24 20 19 19 19 16 14
12 13 12 9 8 10 13 13 13 15 17 17 17 21 18 15 8 7 7 7 8 8 9 11 12 13 15 16 18 20 21 23 24 25 26 26 27 26 25 25 22 22 22 21 19 20 22 22 19
11 12 12 11 10 10 11 12 14 18 18 16 17 20 20 11 8 7 8 8 8 9 10 11 12 13 14 16 17 20 21 23 25 26 27 27 27 27 26 25 24 23 23 23 19 20 24 24 19
12 13 14 12 13 12 11 13 15 16 21 20 13 19 19 13 6 7 8 7 8 9 10 11 11 13 14 17 18 20 22 23 25 27 28 27 27 27 26 25 26 25 24 23 23 24 25 19 19
12 15 13 13 12 13 12 13 16 17 19 16 14 17 19 12 6 7 8 8 8 8 9 10 11 12 13 17 18 21 22 24 26 28 28 28 28 27 26 25 25 23 23 24 25 25 25 14 13
10 12 14 13 13 14 13 13 18 20 21 15 16 16 16 7 4 4 4 4 5 7 9 9 9 10 14 17 18 21 22 25 27 27 27 28 28 27 26 26 24 21 23 26 26 24 17 12 10
10 11 16 16 14 15 15 15 16 19 20 10 15 17 12 6 3 1 3 3 3 6 9 8 8 10 12 15 18 21 23 26 27 28 27 28 28 27 26 25 22 20 23 24 23 18 12 10 9
12 13 15 19 17 18 18 17 17 14 10 20 19 17 10 5 1 1 1 2 5 7 9 9 7 9 12 16 19 22 24 26 27 28 27 28 27 27 26 24 21 18 22 23 18 14 12 11 13
11 15 16 19 19 18 19 14 14 10 7 9 17 16 9 3 1 2 2 5 6 7 9 9 8 9 12 16 20 23 25 26 27 27 27 27 27 26 25 23 19 19 23 22 17 13 12 11 11
16 17 18 21 19 18 20 20 19 18 19 19 10 7 9 3 3 3 4 4 4 7 9 9 9 10 13 17 21 23 25 27 27 27 26 26 26 25 25 21 18 18 21 21 17 12 12 13 10
19 23 23 17 17 18 20 21 13 10 20 20 19 14 6 4 1 2 1 2 5 6 7 8 9 11 14 17 21 23 26 27 27 27 26 26 25 25 22 20 17 19 19 20 17 11 9 11 12
19 20 23 17 14 18 19 22 18 18 16 21 17 16 13 2 2 1 2 4 5 7 7 9 10 12 15 18 22 24 26 26 26 26 27 25 25 23 20 17 20 21 20 18 15 8 9 12 13
19 20 19 23 14 19 17 24 21 20 21 21 18 14 11 8 3 2 2 4 5 6 8 9 11 13 16 20 22 24 25 27 27 26 27 26 24 21 19 19 20 20 19 16 15 13 15 11 14
18 19 20 20 19 19 22 13 15 16 17 18 15 11 11 5 2 3 5 6 7 7 9 10 12 14 17 20 23 24 25 27 25 25 24 23 21 20 19 19 20 20 17 15 21 24 14 10 12
21 21 24 23 23 25 24 29 28 31 23 23 22 17 8 5 7 6 7 8 8 9 10 10 12 15 18 21 23 24 26 25 24 23 21 20 20 19 19 20 20 20 17 20 24 25 23 15 12
25 23 25 25 22 25 30 42 38 26 18 20 22 18 13 9 7 7 7 8 8 8 10 11 13 16 18 20 22 23 24 22 22 22 20 19 19 18 19 20 19 18 18 17 23 18 20 26 13
23 18 21 23 26 24 31 29 23 21 21 19 17 17 14 9 7 8 8 8 8 8 10 11 14 16 18 20 22 22 22 21 22 22 19 18 18 17 18 18 17 16 16 17 23 24 24 27 17
21 22 23 23 24 23 24 29 27 22 22 18 14 14 12 10 9 9 9 8 8 9 11 12 14 16 18 20 21 21 23 22 22 19 16 18 18 17 16 16 16 14 14 12 14 17 25 22 16
23 20 19 20 21 25 22 22 21 23 22 18 12 10 10 8 10 10 8 8 9 10 11 13 14 16 18 19 20 20 21 20 20 18 15 18 17 15 14 14 14 13 14 14 10 11 10 17 18
15 20 22 22 21 21 21 18 22 18 18 19 14 8 7 7 9 9 9 9 10 11 12 13 14 16 17 18 18 19 20 19 19 18 16 13 13 14 13 13 12 13 15 13 14 9 8 23 15
19 19 23 23 21 21 19 19 16 17 18 19 18 8 5 6 8 9 9 10 10 10 11 12 13 15 17 17 17 18 19 17 18 17 15 13 13 14 13 13 13 13 15 15 11 18 20 20 23
19 20 19 24 22 22 20 20 17 16 20 19 16 10 6 5 8 8 9 10 10 10 11 12 13 14 15 15 16 17 19 17 16 15 15 14 14 15 15 15 14 14 14 17 15 18 25 25 29
21 23 22 23 23 25 21 22 28 23 21 19 16 9 4 4 6 7 8 9 9 10 10 11 12 14 14 14 15 16 18 17 16 15 15 14 15 16 15 15 15 14 16 19 17 15 18 23 23
23 20 24 24 26 26 24 26 18 21 18 15 13 7 4 4 4 5 5 7 9 10 11 11 12 13 13 14 14 16 17 17 16 14 16 15 15 16 16 16 16 18 19 19 18 17 22 22 16
26 27 26 25 24 26 27 26 21 23 19 12 10 6 4 2 3 4 4 6 8 10 10 11 11 12 13 14 14 16 17 16 15 15 14 14 15 16 18 19 19 19 19 18 16 14 23 15 15
28 30 26 30 30 29 33 30 21 19 19 19 18 11 7 4 3 3 4 5 7 8 10 10 11 12 12 14 14 16 16 15 13 13 14 15 16 17 19 19 20 21 21 20 17 24 29 30 25
Wind_Direction
326 329 13 17 50 21 51 36 13 38 25 22 11 18 12 6 15 5 21 54 40 50 36 19 6 355 347 343 340 338 339 337 336 334 329 326 328 332 332 330 325 319 319 321 319 320 328 323 330
358 28 29 52 46 49 59 15 63 39 7 4 359 1 357 359 10 14 20 43 44 40 25 13 4 357 352 347 343 340 340 338 337 336 335 336 332 325 326 328 326 320 318 318 317 312 309 302 310
37 26 66 61 45 50 41 36 44 14 12 4 0 353 358 7 15 33 14 68 40 27 20 14 9 3 356 351 347 344 341 340 338 337 338 338 337 331 324 319 321 323 320 316 314 311 305 299 298
40 39 33 52 56 49 27 11 14 9 357 354 355 351 351 354 1 23 44 53 39 29 20 18 13 6 359 354 350 346 343 340 338 338 340 340 338 335 332 325 321 321 321 318 313 309 306 297 287
17 31 43 44 44 41 23 8 12 2 347 354 355 344 345 349 354 23 57 52 44 30 25 21 16 9 2 355 350 346 345 342 339 337 337 337 334 333 330 326 319 318 319 318 314 311 304 297 287
24 25 22 30 42 34 13 4 355 347 344 345 344 327 337 349 16 42 47 43 33 26 20 15 11 8 1 355 350 347 345 341 338 337 334 336 333 332 330 327 325 320 317 315 312 308 303 297 287
11 9 10 15 24 18 17 7 350 340 340 343 344 331 332 3 33 43 30 24 19 12 9 6 6 3 0 355 351 346 344 339 335 335 332 333 333 331 328 327 325 321 317 312 310 306 300 292 286
4 359 356 7 9 14 23 2 352 345 332 334 344 329 333 356 49 31 19 19 12 5 0 359 0 359 356 352 349 345 342 338 335 334 334 334 333 332 330 326 322 321 317 311 304 299 295 289 286
357 341 348 353 5 11 18 4 349 346 336 340 336 327 333 359 34 13 1 0 358 355 353 355 357 358 355 350 347 343 341 336 335 333 334 334 333 333 331 328 324 321 317 308 300 294 291 285 286
347 343 341 350 358 359 6 358 343 335 331 338 328 326 333 9 20 22 15 6 357 352 348 350 352 353 350 348 347 343 340 334 332 334 335 334 332 333 332 328 326 324 316 302 294 294 287 277 281
350 335 336 337 344 350 351 349 343 335 331 339 334 330 332 345 356 24 4 5 356 350 345 345 347 348 347 347 346 342 339 333 331 332 334 334 333 333 333 332 328 325 314 304 296 294 276 260 261
334 331 328 329 335 340 344 348 342 331 322 334 331 332 339 335 312 227 302 351 351 347 346 346 348 345 344 344 343 341 338 335 332 333 334 335 333 333 333 333 330 325 313 303 301 293 277 256 253
327 328 329 324 328 333 338 338 337 315 315 325 329 332 336 333 266 297 321 345 348 347 349 352 352 347 346 345 343 341 338 336 334 334 335 335 333 332 332 332 332 321 308 305 301 287 273 257 244
334 329 325 323 325 331 334 338 342 343 340 338 346 327 330 282 223 325 329 332 343 348 352 356 355 352 350 346 343 342 338 336 336 335 335 335 334 333 331 331 331 319 309 309 301 282 269 256 236
326 319 322 326 329 332 339 334 340 352 335 336 336 340 337 330 291 235 296 344 354 358 3 4 3 358 353 349 346 345 340 338 337 337 337 336 335 332 332 331 327 313 311 308 303 284 265 250 235
325 324 319 333 341 338 339 333 343 345 341 332 335 337 340 314 322 352 29 9 15 9 10 12 8 2 356 351 348 346 344 341 339 338 338 337 335 333 332 332 317 309 310 307 306 281 257 228 232
320 317 319 321 335 335 336 330 336 340 334 330 331 331 335 346 360 30 53 31 35 39 25 15 10 2 357 354 352 350 348 345 342 341 337 335 335 335 336 326 315 313 308 307 306 280 245 201 230
316 317 318 319 329 330 327 302 320 331 331 327 327 327 328 339 14 49 60 47 53 42 29 19 13 6 2 359 356 353 351 349 349 347 346 343 341 337 333 323 315 312 314 310 276 257 263 202 213
309 312 311 315 321 322 326 323 325 324 328 325 327 335 347 356 14 60 67 62 54 37 30 26 16 11 6 2 359 357 355 358 1 357 358 353 347 337 324 317 305 314 303 280 259 241 234 219 194
297 305 307 312 321 322 321 295 313 329 340 334 328 335 353 14 43 79 76 69 59 42 34 26 20 15 11 9 5 4 2 6 6 10 11 3 343 336 312 283 296 306 270 254 229 246 231 220 186
296 302 308 311 315 321 321 326 338 340 334 333 338 341 357 30 66 96 90 78 58 45 36 31 24 20 16 13 12 11 14 17 18 21 29 23 328 316 287 273 281 274 240 237 216 218 216 208 206
295 301 304 309 314 317 330 323 332 340 332 331 341 346 3 33 75 92 86 81 65 46 41 35 29 25 21 19 18 21 19 23 27 34 44 353 331 310 278 277 277 255 227 237 231 233 214 216 218
296 305 308 312 313 314 321 323 334 336 333 332 349 0 8 51 91 96 91 82 65 51 45 38 34 29 26 27 29 29 29 35 39 47 63 347 355 304 272 278 277 256 234 217 244 253 244 218 202
296 300 306 309 311 309 316 319 327 341 342 335 348 8 25 59 92 86 74 71 63 53 46 41 38 31 32 35 38 36 39 47 52 63 79 158 232 248 260 256 272 257 215 227 227 240 262 216 225
287 294 300 302 301 301 313 312 317 329 327 329 341 6 44 65 90 85 74 81 70 62 55 49 42 35 38 42 43 42 45 58 63 75 99 189 204 218 241 239 251 248 236 215 236 213 196 205 210
277 283 290 297 300 306 306 305 320 329 321 322 335 354 33 70 103 97 76 83 77 65 63 56 49 43 46 49 53 51 48 63 74 91 110 165 196 212 220 229 237 242 245 216 216 213 196 196 197
276 275 287 292 300 300 301 306 299 307 309 316 332 352 40 79 108 106 73 83 74 69 70 68 56 48 53 57 63 59 57 67 80 102 121 158 178 198 218 223 231 238 223 205 212 215 211 204 212
275 282 279 282 288 290 295 297 302 314 315 314 329 352 18 54 89 91 75 82 71 72 69 71 64 56 61 66 77 70 68 81 92 122 122 154 174 199 204 219 214 198 197 203 211 207 194 196 210
269 270 275 281 281 286 291 295 305 300 300 315 331 345 359 40 94 102 66 70 69 72 71 80 71 61 67 75 87 84 91 100 111 129 148 175 193 207 195 188 190 195 198 204 210 212 186 205 197
274 270 267 270 276 281 280 282 312 306 302 303 309 324 340 347 5 47 31 52 64 75 82 91 78 71 76 79 96 92 108 124 152 160 168 174 190 189 189 191 191 189 188 187 198 190 172 178 184